Overview Statistics Trail Chart Weather Telemetry Raw packets
 

This is the latest recevied weather packets stored in our database for station/object K1NOT-WX. If no packets are shown the sender has not sent any weather packets the latest 10 day(s).

<< 1 2 3 4 5 6 >>
Time Temp. Humidity Pressure Rain* Wind** Luminosity Snow
1777702332 14.44° C 65% 1007.8 hPa 0 mm - - -
1777701432 14.44° C 65% 1007.4 hPa 0 mm - - -
1777700532 15° C 63% 1007.4 hPa 0 mm - - -
1777699632 15.56° C 63% 1007.4 hPa 0 mm - - -
1777698732 15.56° C 62% 1007.1 hPa 0 mm - - -
1777697832 16.11° C 59% 1007.1 hPa 0 mm - - -
1777696932 16.11° C 58% 1007.1 hPa 0 mm - - -
1777696032 16.11° C 58% 1006.8 hPa 0 mm - - -
1777695132 16.67° C 58% 1006.8 hPa 0 mm - - -
1777694232 16.67° C 59% 1006.8 hPa 0 mm - - -
1777693332 16.67° C 59% 1006.4 hPa 0 mm - - -
1777692432 16.67° C 57% 1006.4 hPa 0 mm - - -
1777691532 17.22° C 55% 1006.1 hPa 0 mm - - -
1777690632 17.22° C 54% 1006.1 hPa 0 mm - - -
1777689732 17.22° C 56% 1005.8 hPa 0 mm - - -
1777688832 17.78° C 62% 1005.8 hPa 0 mm - - -
1777687932 17.78° C 61% 1005.8 hPa 0 mm - - -
1777687032 17.78° C 61% 1005.8 hPa 0 mm - - -
1777686132 17.78° C 60% 1005.8 hPa 0 mm - - -
1777685232 18.33° C 59% 1005.8 hPa 0 mm - - -
1777684332 18.89° C 55% 1006.1 hPa 0 mm - - -
1777683433 18.89° C 54% 1005.8 hPa 0 mm - - -
1777682533 19.44° C 54% 1005.8 hPa 0 mm - - -
1777681633 19.44° C 53% 1005.8 hPa 0 mm - - -
1777680733 20° C 51% 1005.8 hPa 0 mm - - -

* Rain latest hour (hover to see other rain measurements)
** Current wind speed in m/s (hover to see current wind gust speed)